Burnet, TX

1:52 AM CDT on June 24, 2017 (GMT -0500)
Burnet Municipal-Craddock

Weather History for KBMQ - August, 2014

Change the Weather History Date:

Tuesday, August 19, 2014

  Actual Average Record
Temperature  
Mean Temperature 81 °F -  
Max Temperature 91 °F 91 °F 104 °F (2011)
Min Temperature 71 °F 71 °F 66 °F (2001)
Cooling Degree Days 16    
Growing Degree Days 31 (Base 50)    
Moisture  
Dew Point 66 °F    
Average Humidity 64    
Maximum Humidity 90    
Minimum Humidity 36    
Precipitation  
Precipitation 0.01 in - - ()
Sea Level Pressure  
Sea Level Pressure 29.90 in    
Wind  
Wind Speed 5 mph (South)    
Max Wind Speed 13 mph    
Max Gust Speed 22 mph    
Visibility 10 miles    
Events Rain    
Averages and records for this station are not official NWS values.
T = Trace of Precipitation, MM = Missing Value Source: NWS Daily Summary

Daily Weather History Graph

Daily Weather History Graph

Search for Another Location

Airport or City:

Trip Planner

Search our weather history database for the weather conditions in past years. The results will help you decide how hot, cold, wet, or windy it might be!

Date:

Astronomy

Aug. 19, 2014 Rise Set
Actual Time 7:01 AM CDT 8:10 PM CDT
Civil Twilight 6:36 AM CDT 8:35 PM CDT
Nautical Twilight 6:06 AM CDT 9:05 PM CDT
Astronomical Twilight 5:35 AM CDT 9:36 PM CDT
Moon 2:01 AM CDT (8/19) 4:01 PM CDT (8/19)
Length of Visible Light 13h 59m
Length of Day
13h 09m
Waning Crescent, 29% of the Moon is Illuminated
Aug 19
Waning Crescent
Aug 25
New
Sep 2
First Quarter
Sep 8
Full
Sep 15
Last Quarter

Hourly Weather History & Observations

Time (CDT) Temp. Heat Index Dew Point Humidity Pressure Visibility Wind Dir Wind Speed Gust Speed Precip Events Conditions
12:53 AM 75.9 °F - 70.0 °F 82% 29.91 in 10.0 mi Calm Calm - N/A   Clear
1:53 AM 75.0 °F - 70.0 °F 84% 29.92 in 10.0 mi SSW 5.8 mph - N/A   Partly Cloudy
2:53 AM 75.0 °F - 69.1 °F 82% 29.89 in 10.0 mi Calm Calm - 0.00 in Rain Light Rain
4:53 AM 72.0 °F - 66.9 °F 84% 29.89 in 7.0 mi South 5.8 mph - 0.00 in Rain Light Rain
5:53 AM 71.1 °F - 68.0 °F 90% 29.91 in 10.0 mi SSW 4.6 mph - 0.01 in   Partly Cloudy
6:53 AM 71.1 °F - 68.0 °F 90% 29.91 in 10.0 mi Calm Calm - N/A   Clear
7:53 AM 72.0 °F - 68.0 °F 87% 29.92 in 10.0 mi Calm Calm - N/A   Clear
8:53 AM 73.9 °F - 68.0 °F 82% 29.94 in 9.0 mi South 6.9 mph - N/A   Clear
9:53 AM 75.0 °F - 68.0 °F 79% 29.96 in 10.0 mi South 11.5 mph - N/A   Clear
10:53 AM 75.0 °F - 68.0 °F 79% 29.96 in 10.0 mi SSW 12.7 mph 19.6 mph 0.00 in   Overcast
11:53 AM 77.0 °F - 66.9 °F 71% 29.96 in 10.0 mi South 12.7 mph - 0.00 in   Scattered Clouds
12:53 PM 79.0 °F - 66.9 °F 66% 29.95 in 10.0 mi SSE 5.8 mph - N/A   Partly Cloudy
1:53 PM 82.9 °F 84.0 °F 63.0 °F 51% 29.92 in 10.0 mi South 11.5 mph - N/A   Clear
2:53 PM 86.0 °F 87.3 °F 64.0 °F 48% 29.90 in 10.0 mi South 10.4 mph 17.3 mph N/A   Clear
3:53 PM 86.0 °F 86.8 °F 63.0 °F 46% 29.86 in 10.0 mi South 6.9 mph - N/A   Scattered Clouds
4:53 PM 88.0 °F 88.7 °F 63.0 °F 43% 29.84 in 10.0 mi Variable 6.9 mph - N/A   Clear
5:53 PM 91.0 °F 92.6 °F 64.0 °F 41% 29.83 in 10.0 mi SSW 3.5 mph - N/A   Clear
6:53 PM 91.0 °F 90.9 °F 61.0 °F 36% 29.83 in 10.0 mi South 12.7 mph 18.4 mph N/A   Clear
7:53 PM 90.0 °F 90.0 °F 61.0 °F 38% 29.83 in 10.0 mi SSE 6.9 mph - N/A   Clear
8:53 PM 86.0 °F 86.8 °F 63.0 °F 46% 29.84 in 10.0 mi ESE 3.5 mph - N/A   Mostly Cloudy
9:53 PM 87.1 °F 88.3 °F 64.0 °F 46% 29.87 in 10.0 mi SSE 9.2 mph 19.6 mph N/A   Clear
10:53 PM 86.0 °F 86.1 °F 61.0 °F 43% 29.88 in 10.0 mi SSE 10.4 mph 21.9 mph N/A   Clear
11:53 PM 82.9 °F 84.0 °F 63.0 °F 51% 29.89 in 10.0 mi SSE 9.2 mph 20.7 mph N/A   Clear